Weather in Albazino

Russia / Amur Oblast     53°23′01″N   124°04′56″E
temp.,
°C
wind,
m/s
gust,
m/s
humid.,
%
clouds,
%
prec.,
mm/h
press.,
hPa
HPBL,
m
19 may, wed
wed1900:00+4nnw113546 0.0 100510
03:00+1e114587 0.0 100610
06:00+2ne11509 0.0 100743
09:00+8se22395 0.0 1005894
12:00+14s2425100 0.0 10032715
15:00+13sse3427100 0.0 10012497
18:00+9ese4663100 0.1 10011239
21:00+6ene4894100 2.4 1002603
20 may, thu
thu2000:00+4ne2793100 1.7 1001323
03:00+3n129569 1.8 1002189
06:00+4wnw259299 0.0 1004454
09:00+6wnw137625 0.0 1005589
12:00+14wsw263786 0.0 10031784
15:00+17w3625100 0.0 10012727
18:00+15nw2630100 0.0 1003294
21:00+10sse2252100 0.1 100646
21 may, fri
fri2100:00+7e1183100 0.5 100715
03:00+6e1495100 1.1 1007205
06:00+6ene3694100 3.3 1008893
09:00+6ene4791100 4.1 1008979
12:00+5e51093100 3.9 1007853
15:00+6ene5992100 4.6 1007931
18:00+5ne61293100 0.1 1005976
21:00+5ene51390100 0.1 1006810
22 may, sat
sat2200:00+4ene51392100 0.9 1004669
03:00+4ne41091100 0.9 1004561
06:00+4ene3992100 0.1 1003508
09:00+4n2692100 0.3 1004458
12:00+5nne2791100 0.3 1003574
15:00+4ne2792100 1.1 1002616
18:00+2nnw2599100 4.0 1002390
21:00+2w1399100 6.6 1002420
23 may, sun
sun2300:00+3wsw1599100 0.6 1000562
03:00+3nw41098100 2.8 999692
06:00+2wnw51098100 0.4 999822
09:00+5nw51088100 0.6 9991039
12:00+8nw61170100 0.5 9991415
15:00+9nnw61060100 0.8 10011544
18:00+8nnw61261100 0.1 10031470
21:00+6nw5125776 0.1 1004872